contact:dominique.lefevre@mio.osupytheas.fr, maurice.libes@osupytheas.fr
Project:EMSO Ligure-ouest http://www.emso-fr.org/EMSO-France
Sensor Aquadopp, line 13 Serial AQD14315 
DOI : "https://doi.org/10.17882/74513; https://doi.org/10.17882/83244" 
Title:EMSO Ligure Ouest : Data ligne ALBATROSS capteur AQUADOPP - deploiement 2021
Id,Date,Profondeur,Latitude,Longitude,X_East,Y_North,Z_Up,Amplitude_X,Amplitude_Y,Amplitude_Z,Batterie,SoundSpeed,Heading,Pitch,Roll,Pressure,Temperature,Speed,Direction
, , m, degrees North, degrees East, m.s-1, m.s-1,m.s-1, 1, 1, 1, Volt, m.s-1, degree, degree, degree, dbar, degree_C, m.s-1, degree
09,2023-03-25T23:30:00,2000.0,42.79,6.0312,0.084,-0.004,-0.007,61.0,56.0,59.0,12.1,1504.7,73.8,-1.5,0.9,1992.611,13.28,0.084,92.7
09,2023-03-26T00:00:00,2000.0,42.79,6.0312,0.079,0.012,-0.01,61.0,57.0,58.0,12.1,1504.7,64.4,-1.7,1.2,1992.606,13.28,0.079,81.4
09,2023-03-26T00:30:00,2000.0,42.79,6.0312,0.088,-0.001,0.0,61.0,58.0,62.0,12.1,1504.7,67.9,-1.6,0.8,1992.605,13.28,0.088,90.6
09,2023-03-26T01:00:00,2000.0,42.79,6.0312,0.08,-0.001,-0.038,64.0,62.0,67.0,12.1,1504.7,75.8,-1.0,1.2,1992.57,13.28,0.08,90.7
09,2023-03-26T02:00:00,2000.0,42.79,6.0312,0.076,0.021,0.0,65.0,61.0,65.0,12.1,1504.7,69.3,-0.9,1.2,1992.563,13.28,0.078,74.6
09,2023-03-26T02:30:00,2000.0,42.79,6.0312,0.076,0.021,0.0,68.0,62.0,68.0,12.1,1504.6,73.9,-1.9,0.8,1992.506,13.27,0.078,74.6
09,2023-03-26T03:00:00,2000.0,42.79,6.0312,0.079,0.0,-0.004,68.0,64.0,69.0,12.1,1504.6,77.3,-1.0,1.2,1992.506,13.27,0.078,90.0
09,2023-03-26T03:30:00,2000.0,42.79,6.0312,0.084,0.01,0.008,67.0,65.0,66.0,12.1,1504.6,81.0,-1.9,1.1,1992.491,13.27,0.084,83.2
09,2023-03-26T04:00:00,2000.0,42.79,6.0312,0.077,0.019,0.004,64.0,61.0,63.0,12.1,1504.6,74.9,-1.9,1.1,1992.523,13.27,0.079,76.1
09,2023-03-26T04:30:00,2000.0,42.79,6.0312,0.062,0.0,-0.001,66.0,62.0,64.0,12.1,1504.6,81.8,-1.5,1.0,1992.508,13.27,0.061,90.0
09,2023-03-26T05:00:00,2000.0,42.79,6.0312,0.08,0.009,0.01,63.0,60.0,60.0,12.1,1504.6,78.3,-1.9,1.1,1992.537,13.27,0.08,83.6
09,2023-03-26T05:30:00,2000.0,42.79,6.0312,0.099,0.034,0.0,61.0,60.0,61.0,12.1,1504.6,74.9,-2.0,1.0,1992.516,13.27,0.104,71.0
09,2023-03-26T06:00:00,2000.0,42.79,6.0312,0.09,0.006,-0.011,61.0,61.0,61.0,12.1,1504.6,77.8,-1.8,1.1,1992.491,13.27,0.09,86.2
09,2023-03-26T06:30:00,2000.0,42.79,6.0312,0.097,0.027,-0.007,61.0,58.0,60.0,12.1,1504.6,72.6,-1.6,1.2,1992.547,13.27,0.1,74.4
09,2023-03-26T07:00:00,2000.0,42.79,6.0312,0.084,0.0,0.009,60.0,58.0,60.0,12.1,1504.6,83.6,-1.6,0.7,1992.537,13.27,0.083,90.0
09,2023-03-26T07:30:00,2000.0,42.79,6.0312,0.076,0.035,-0.016,62.0,56.0,61.0,12.1,1504.6,59.3,-1.7,0.9,1992.572,13.27,0.083,65.3
09,2023-03-26T08:00:00,2000.0,42.79,6.0312,0.066,0.037,0.005,62.0,59.0,62.0,12.1,1504.6,58.6,-1.7,1.1,1992.573,13.27,0.075,60.7
09,2023-03-26T08:30:00,2000.0,42.79,6.0312,0.11,0.009,-0.004,67.0,62.0,68.0,12.1,1504.6,66.0,-1.7,0.5,1992.625,13.27,0.11,85.3
09,2023-03-26T09:00:00,2000.0,42.79,6.0312,0.096,0.022,0.017,63.0,58.0,62.0,12.1,1504.6,61.7,-2.2,1.2,1992.729,13.27,0.098,77.1
09,2023-03-26T09:30:00,2000.0,42.79,6.0312,0.088,0.029,0.002,65.0,60.0,66.0,12.1,1504.6,62.4,-1.8,0.8,1992.708,13.27,0.092,71.8
09,2023-03-26T10:00:00,2000.0,42.79,6.0312,0.082,0.038,-0.006,72.0,66.0,68.0,12.1,1504.6,64.6,-1.8,1.2,1992.68,13.27,0.09,65.1
09,2023-03-26T10:30:00,2000.0,42.79,6.0312,0.093,0.035,-0.009,70.0,66.0,68.0,12.1,1504.6,64.1,-2.1,1.2,1992.694,13.27,0.099,69.4
09,2023-03-26T11:00:00,2000.0,42.79,6.0312,0.097,0.057,0.0,71.0,68.0,70.0,12.1,1504.6,64.8,-1.9,1.1,1992.709,13.27,0.112,59.6
09,2023-03-26T11:30:00,2000.0,42.79,6.0312,0.108,0.022,-0.016,71.0,68.0,71.0,12.1,1504.6,69.2,-1.8,1.3,1992.662,13.27,0.11,78.5
09,2023-03-26T12:00:00,2000.0,42.79,6.0312,0.116,-0.004,-0.011,71.0,68.0,70.0,12.1,1504.6,71.7,-1.9,1.3,1992.668,13.27,0.116,92.0
09,2023-03-26T12:30:00,2000.0,42.79,6.0312,0.108,0.009,0.002,72.0,69.0,71.0,12.1,1504.6,64.5,-2.0,1.0,1992.626,13.27,0.108,85.2
09,2023-03-26T13:00:00,2000.0,42.79,6.0312,0.102,0.027,-0.008,72.0,68.0,71.0,12.1,1504.6,60.7,-2.1,1.0,1992.609,13.27,0.105,75.2
09,2023-03-26T13:30:00,2000.0,42.79,6.0312,0.085,0.028,0.0,73.0,68.0,68.0,12.1,1504.6,60.9,-1.9,1.1,1992.599,13.27,0.089,71.8
09,2023-03-26T14:30:00,2000.0,42.79,6.0312,0.095,-0.01,-0.021,67.0,62.0,65.0,12.1,1504.6,66.9,-1.2,1.1,1992.563,13.27,0.095,96.0
09,2023-03-26T15:00:00,2000.0,42.79,6.0312,0.086,0.011,0.001,62.0,62.0,62.0,12.1,1504.6,66.2,-1.4,0.9,1992.566,13.27,0.086,82.7
09,2023-03-26T15:30:00,2000.0,42.79,6.0312,0.107,0.011,0.01,61.0,56.0,60.0,12.1,1504.6,61.1,-1.7,1.3,1992.536,13.27,0.107,84.1
09,2023-03-26T16:00:00,2000.0,42.79,6.0312,0.082,0.014,0.016,63.0,59.0,60.0,12.1,1504.6,63.1,-1.7,1.2,1992.579,13.27,0.083,80.3
09,2023-03-26T16:30:00,2000.0,42.79,6.0312,0.075,0.017,-0.004,61.0,56.0,59.0,12.1,1504.6,70.5,-2.2,1.1,1992.536,13.27,0.076,77.2
09,2023-03-26T17:00:00,2000.0,42.79,6.0312,0.068,0.0,0.018,63.0,58.0,62.0,12.1,1504.6,77.5,-2.1,1.0,1992.584,13.27,0.067,90.0
09,2023-03-26T17:30:00,2000.0,42.79,6.0312,0.067,0.001,-0.012,61.0,59.0,62.0,12.1,1504.6,67.6,-1.3,1.3,1992.55,13.27,0.067,89.1
09,2023-03-26T18:00:00,2000.0,42.79,6.0312,0.102,0.011,0.003,62.0,59.0,61.0,12.1,1504.6,72.8,-1.4,1.0,1992.514,13.27,0.102,83.8
09,2023-03-26T18:30:00,2000.0,42.79,6.0312,0.079,0.013,-0.012,63.0,59.0,62.0,12.1,1504.6,76.9,-2.0,0.9,1992.567,13.27,0.08,80.7
09,2023-03-26T19:00:00,2000.0,42.79,6.0312,0.081,-0.006,0.007,62.0,56.0,62.0,12.1,1504.6,80.3,-1.5,0.9,1992.59,13.27,0.081,94.2
09,2023-03-26T19:30:00,2000.0,42.79,6.0312,0.074,0.017,-0.035,61.0,56.0,60.0,12.1,1504.6,71.1,-1.8,1.3,1992.591,13.27,0.075,77.1
09,2023-03-26T20:00:00,2000.0,42.79,6.0312,0.091,0.007,-0.002,60.0,58.0,61.0,12.1,1504.6,83.5,-1.4,0.6,1992.654,13.27,0.091,85.6
09,2023-03-26T20:30:00,2000.0,42.79,6.0312,0.079,0.022,0.014,62.0,56.0,61.0,12.1,1504.6,66.4,-1.6,1.0,1992.637,13.27,0.082,74.4
09,2023-03-26T21:00:00,2000.0,42.79,6.0312,0.084,0.012,-0.001,63.0,60.0,65.0,12.1,1504.6,81.2,-2.1,1.2,1992.708,13.27,0.084,81.9
09,2023-03-26T21:30:00,2000.0,42.79,6.0312,0.109,0.014,-0.011,66.0,61.0,64.0,12.1,1504.6,79.4,-1.9,1.1,1992.723,13.27,0.109,82.7
09,2023-03-26T22:00:00,2000.0,42.79,6.0312,0.092,0.029,0.005,65.0,64.0,64.0,12.1,1504.6,66.9,-1.4,1.5,1992.729,13.27,0.096,72.5
09,2023-03-26T22:30:00,2000.0,42.79,6.0312,0.087,0.036,0.0,65.0,61.0,65.0,12.1,1504.6,65.7,-2.1,1.2,1992.721,13.27,0.094,67.5
09,2023-03-26T23:00:00,2000.0,42.79,6.0312,0.11,-0.005,-0.02,62.0,62.0,64.0,12.1,1504.6,76.2,-1.3,0.7,1992.7,13.27,0.11,92.6
